This demonstration page uses our WeatherBlox Daily Observations layout. Learn more.

Left ArrowRight Arrow

41.12389, -100.76542

Hourly Observations for October 2, 2022

Temp ( °F °C ) Dew Point ( °F °C ) Humidity (%) Winds ( mph kmh ) Pressure ( in mb ) Visibility ( mi km ) Precip ( " mm )
12:53 am 00:53 Mostly Cloudy 71 21.7 45 7.2 39 39 S 6 9 30.08 1019 10 16 0.00 0.00
1:53 am 01:53 Partly Cloudy 63 17.2 51 10.6 65 65 undefined N/A 30.07 1018 10 16 0.00 0.00
2:53 am 02:53 Mostly Cloudy 61 16.1 50 10 67 67 E 12 19 30.07 1018 10 16 0.00 0.00
3:53 am 03:53 Mostly Cloudy 62 16.7 50 10 65 65 E 9 15 30.06 1018 10 16 0.00 0.00
4:53 am 04:53 Cloudy 63 17.2 50 10 63 63 E 16 26 30.05 1018 10 16 0.00 0.00
5:53 am 05:53 Clear 56 13.3 48 8.9 75 75 ESE 8 13 30.07 1018 10 16 0.00 0.00
6:53 am 06:53 Clear 55 12.8 45 7.2 69 69 ESE 12 19 30.09 1019 10 16 0.00 0.00
7:53 am 07:53 Sunny 53 11.7 44 6.7 71 71 ESE 13 20 30.09 1019 10 16 0.00 0.00
8:53 am 08:53 Sunny 61 16.1 41 5 48 48 ESE 15 24 30.10 1019 10 16 0.00 0.00
9:53 am 09:53 Sunny 66 18.9 42 5.6 42 42 ESE 10 17 30.11 1020 10 16 0.00 0.00
10:53 am 10:53 Sunny 72 22.2 44 6.7 37 37 SE 8 13 30.11 1020 10 16 0.00 0.00
11:53 am 11:53 Sunny 78 25.6 45 7.2 31 31 SSE 10 17 30.09 1019 10 16 0.00 0.00
12:53 pm 12:53 Sunny 83 28.3 45 7.2 26 26 S 15 24 30.06 1018 10 16 0.00 0.00
1:53 pm 13:53 Sunny 86 30 44 6.7 23 23 SSE 17 28 30.05 1018 10 16 0.00 0.00
2:53 pm 14:53 Sunny 87 30.6 44 6.7 22 22 S 18 30 30.02 1017 10 16 0.00 0.00
3:53 pm 15:53 Sunny 88 31.1 43 6.1 21 21 SSE 21 33 30.00 1016 10 16 0.00 0.00
4:53 pm 16:53 Sunny 87 30.6 39 3.9 18 18 SSE 17 28 30.00 1016 10 16 0.00 0.00
5:53 pm 17:53 Sunny 85 29.4 39 3.9 20 20 SSE 15 24 30.00 1016 10 16 0.00 0.00
6:53 pm 18:53 Sunny 81 27.2 37 2.8 21 21 SE 18 30 30.02 1017 10 16 0.00 0.00
7:53 pm 19:53 Clear 77 25 35 1.7 22 22 SE 16 26 30.05 1018 10 16 0.00 0.00
8:53 pm 20:53 Clear 75 23.9 35 1.7 23 23 SE 17 28 30.05 1018 10 16 0.00 0.00
9:53 pm 21:53 Clear 73 22.8 35 1.7 25 25 SSE 14 22 30.06 1018 10 16 0.00 0.00
10:53 pm 22:53 Mostly Clear 73 22.8 35 1.7 25 25 SSE 16 26 30.07 1018 10 16 0.00 0.00
11:53 pm 23:53 Clear 70 21.1 35 1.7 28 28 SSE 14 22 30.08 1019 10 16 0.00 0.00

Powered by AerisWeather